YD2APR-13 Weather Reports


time (UTC)temp
F
wind
direction
speed
knots
gust
knots
rain 1hr
in
rain 24hr
in
rain mn
in
humidity
%
barometer
mb
20260504204658 73 0.0 0.0 0.00 0.00 0.00 91 1014.5
20260504203658 73 0.0 0.0 0.00 0.00 0.00 91 1014.5
20260504202659 73 0.0 0.0 0.00 0.00 0.00 91 1014.5
20260504201658 73 0.0 0.0 0.00 0.00 0.00 91 1014.5
20260504200658 73 0.0 0.0 0.00 0.00 0.00 91 1014.6
20260504195658 74 0.0 0.0 0.00 0.00 0.00 89 1014.5
20260504194658 74 0.0 0.0 0.00 0.00 0.00 89 1014.5
20260504193658 74 0.0 0.0 0.00 0.00 0.00 89 1014.7
20260504192659 74 0.0 0.0 0.00 0.00 0.00 89 1014.8
20260504191659 74 0.0 0.0 0.00 0.00 0.00 89 1014.9
20260504190658 74 0.0 0.0 0.00 0.00 0.00 89 1014.9
20260504185658 74 0.0 0.0 0.00 0.00 0.00 89 1015.0
20260504184658 74 0.0 0.0 0.00 0.00 0.00 90 1014.9
20260504183658 74 0.0 0.0 0.00 0.00 0.00 90 1015.1
20260504182658 74 0.0 0.0 0.00 0.00 0.00 89 1015.2
20260504181658 75 0.0 0.0 0.00 0.00 0.00 88 1015.3
20260504180658 75 0.0 0.0 0.00 0.00 0.00 88 1015.4
20260504175658 75 0.0 0.0 0.00 0.00 0.00 88 1015.6
20260504174658 75 0.0 0.0 0.00 0.00 0.00 88 1015.8
20260504173658 75 0.0 0.0 0.00 0.00 0.00 87 1015.8
20260504172658 75 0.0 0.0 0.00 0.00 0.00 87 1016.0
20260504171658 75 0.0 0.0 0.00 0.00 0.00 88 1016.3
20260504170658 75 0.0 0.0 0.00 0.00 0.00 88 1016.4
20260504150658 76 0.0 0.0 0.00 0.00 0.00 84 1017.1
20260504140756 77 0.0 0.0 0.00 0.00 0.00 82 1017.4
20260504140702 77 0.0 0.0 0.00 0.00 0.00 82 1017.4
20260504140112 77 0.0 0.0 0.00 0.00 0.00 80 1017.3
20260504130800 77 0.0 0.0 0.00 0.00 0.00 82 1016.7
20260504130702 77 0.0 0.0 0.00 0.00 0.00 82 1016.9
20260504110701 77 0.0 0.0 0.00 0.00 0.00 85 1015.4
20260504081821 85 0.0 0.0 0.00 0.00 0.00 68 1013.7
20260504080821 85 0.0 0.0 0.00 0.00 0.00 68 1013.8
20260504045818 89 0.0 0.0 0.00 0.00 0.00 59 1015.9
20260504044816 91 0.0 0.0 0.00 0.00 0.00 57 1016.1
20260504043817 90 0.0 0.0 0.00 0.00 0.00 59 1016.3
20260504042816 86 0.0 0.0 0.00 0.00 0.00 64 1016.3
20260504041816 86 0.0 0.0 0.00 0.00 0.00 64 1016.4
20260504040819 87 0.0 0.0 0.00 0.00 0.00 63 1016.5
20260504035816 87 0.0 0.0 0.00 0.00 0.00 63 1016.6
20260504034817 88 0.0 0.0 0.00 0.00 0.00 62 1016.7
20260504033816 89 0.0 0.0 0.00 0.00 0.00 62 1016.8
20260504032817 88 0.0 0.0 0.00 0.00 0.00 63 1016.9
20260504031816 89 0.0 0.0 0.00 0.00 0.00 63 1017.1
20260504030816 88 0.0 0.0 0.00 0.00 0.00 64 1017.2
20260504025816 88 0.0 0.0 0.00 0.00 0.00 64 1017.3
20260504024816 86 0.0 0.0 0.00 0.00 0.00 67 1017.3
20260504023816 86 0.0 0.0 0.00 0.00 0.00 65 1017.3
20260504022819 85 0.0 0.0 0.00 0.00 0.00 66 1017.2
20260504021818 86 0.0 0.0 0.00 0.00 0.00 66 1017.1
20260504020816 87 0.0 0.0 0.00 0.00 0.00 64 1017.1
20260504015816 86 0.0 0.0 0.00 0.00 0.00 64 1017.1
20260504014816 87 0.0 0.0 0.00 0.00 0.00 62 1017.1
20260504013816 86 0.0 0.0 0.00 0.00 0.00 64 1016.9
20260504012816 85 0.0 0.0 0.00 0.00 0.00 65 1016.9
20260504011816 84 0.0 0.0 0.00 0.00 0.00 67 1016.8
20260504010816 82 0.0 0.0 0.00 0.00 0.00 71 1016.8
20260504005816 81 0.0 0.0 0.00 0.00 0.00 74 1016.7
20260504004816 80 0.0 0.0 0.00 0.00 0.00 77 1016.8
20260504003816 80 0.0 0.0 0.00 0.00 0.00 77 1016.6
20260504002816 78 0.0 0.0 0.00 0.00 0.00 80 1016.4
20260504001816 78 0.0 0.0 0.00 0.00 0.00 80 1016.4
20260504000821 78 0.0 0.0 0.00 0.00 0.00 82 1016.4
20260503235102 76 0.0 0.0 0.00 0.00 0.00 83 1016.1
20260503234101 75 0.0 0.0 0.00 0.00 0.00 85 1016.0
20260503233102 74 0.0 0.0 0.00 0.00 0.00 87 1015.9
20260503232102 74 0.0 0.0 0.00 0.00 0.00 87 1015.9
20260503231101 74 0.0 0.0 0.00 0.00 0.00 89 1015.9
20260503225101 74 0.0 0.0 0.00 0.00 0.00 88 1015.8
20260503224101 74 0.0 0.0 0.00 0.00 0.00 87 1015.6
20260503223101 74 0.0 0.0 0.00 0.00 0.00 87 1015.6
20260503222101 74 0.0 0.0 0.00 0.00 0.00 87 1015.6
20260503221101 74 0.0 0.0 0.00 0.00 0.00 87 1015.4
20260503215101 75 0.0 0.0 0.00 0.00 0.00 86 1015.4
20260503214101 74 0.0 0.0 0.00 0.00 0.00 88 1015.4
20260503213102 74 0.0 0.0 0.00 0.00 0.00 89 1015.4
20260503212101 74 0.0 0.0 0.00 0.00 0.00 89 1015.5
20260503211101 74 0.0 0.0 0.00 0.00 0.00 88 1015.3
20260503205101 75 0.0 0.0 0.00 0.00 0.00 85 1015.1